map of KBDN home
KBDN - Airport
Location
City:  Bend, Oregon, United States
Name:Bend Municipal Airport
ICAO:KBDN
FAA LID:BDN

Details
Type:Airport (Airfield)
Use:Public/Civil
Latitude:4405'40"N (44.094556)
Longitude:12112'01"W (-121.200221)
Datum:WGS 1984
Elevation:3459 ft (1054 m)
Variation:14.69E (WMM2015 magnetic declination)
-0.12 annual change
Runways:1
Longest:5200 × 75 ft (1585 × 23 m), paved

Weather
METAR:KBDN 162215Z AUTO 36007KT 10SM CLR 05/M06 A3022 RMK AO2
TAF:KBDN 161729Z 1618/1718 29008KT P6SM SCT120 BKN200
FM162100 35006KT P6SM BKN050 OVC100
FM170600 VRB05KT P6SM BKN070 BKN090
FM171500 17004KT P6SM BKN050

Related Locations
Nearby:
Farthest:FTU: 10959 mi / 17637 km
Tolagnaro [Maurillac Airport (Fort Dauphin Airport)], MG

Find:

   beyond  
but within

Other Information
Maps:
NOTAMs:
Links:
Sources:

  
flag of United States
flag of Oregon
  

Sectional Chart

Flight Planning
at skyvector.com

Satellite Image

Google Maps Satellite view

 

Copyright © 2004-2017 Karl L. Swartz. All rights reserved.
The Great Circle Mapper name and logo are trademarks of the Great Circle Mapper.
All other trademarks mentioned herein belong to their respective owners.
Please see credits for attibutions and further copyright information.

  Follow gcmap on Facebook Follow gcmap on Twitter Follow gcmap on Google+ GCmap on LinkedIn

hCard Microformat

Geo Microformat